Regional Weather Roundup
Issued by NWS

Home | Current Version | Previous Version | Graphics & Text | Print | Product List | Glossary On
Versions: 1 2 3 4 5 6 7 8 9 10 11 12 13 14 15 16 17 18 19 20 21 22 23 24 25 26 27 28 29 30 31 32 33 34 35 36 37 38 39 40 41 42 43 44 45 46 47 48 49 50
000
ASUS43 KLMK 242202
RWRKY
KENTUCKY REGIONAL WEATHER ROUNDUP
NATIONAL WEATHER SERVICE LOUISVILLE KY
600 PM EDT SUN SEP 24 2017

NOTE "FAIR" INDICATES FEW OR NO CLOUDS BELOW 12,000 FEET
WITH NO SIGNIFICANT WEATHER AND/OR OBSTRUCTIONS TO VISIBILITY.

KYZ001>023-026-027-061>063-070>075-242300-
WESTERN AND SOUTH CENTRAL KENTUCKY

CITY           SKY/WX    TMP DP  RH WIND       PRES   REMARKS
PADUCAH        SUNNY     88  65  46 E5        29.95S HX  90
HENDERSON      SUNNY     89  61  38 SE7       29.97F
OWENSBORO      NOT AVBL
HOPKINSVILLE   DRIZZLE   78  68  72 NE6       29.99F
BOWLING GREEN  SUNNY     84  70  62 S3        30.00S
GLASGOW        NOT AVBL
$$

KYZ024-025-028>034-038-045-046-053-242300-
NORTH CENTRAL KENTUCKY

CITY           SKY/WX    TMP DP  RH WIND       PRES   REMARKS
LOUISVILLE/SDF MOSUNNY   87  54  32 E9        30.00F
LOUISVILLE/LOU SUNNY     88  58  36 E6        30.01F
FORT KNOX      MOSUNNY   86  59  39 E7        29.99F
$$

KYZ035>037-039>044-047>052-055>060-089>105-242300-
NORTHEAST KENTUCKY

CITY           SKY/WX    TMP DP  RH WIND       PRES   REMARKS
LEXINGTON      SUNNY     86  60  41 E5        30.05S
COVINGTON      MOSUNNY   87  54  32 SE10      30.05S
FRANKFORT      SUNNY     83  58  42 E3        30.03S
$$

KYZ054-064>069-076>088-106>120-242300-
SOUTHEAST KENTUCKY

CITY           SKY/WX    TMP DP  RH WIND       PRES   REMARKS
JACKSON        SUNNY     82  61  48 CALM      30.07S
LONDON         SUNNY     86  60  41 CALM      30.05F
SOMERSET       NOT AVBL
MIDDLESBORO    MOSUNNY   86  61  42 N5        30.05S
MONTICELLO     PTCLDY    84  67  56 NW6       30.05S
$$





USA.gov is the U.S. government's official web portal to all federal, state and local government web resources and services.